Regional Weather Roundup
Issued by NWS

Home | Current Version | Previous Version | Graphics & Text | Print | Product List | Glossary On
Versions: 1 2 3 4 5 6 7 8 9 10 11 12 13 14 15 16 17 18 19 20 21 22 23 24 25 26 27 28 29 30 31 32 33 34 35 36 37 38 39 40 41 42 43 44 45 46 47 48 49 50
000
ASUS43 KBIS 181510
RWRND

NORTH DAKOTA REGIONAL WEATHER ROUNDUP
NATIONAL WEATHER SERVICE BISMARCK ND
900 AM CST SAT NOV 18 2017

NOTE: "FAIR" INDICATES FEW OR NO CLOUDS BELOW 12,000 FEET WITH NO
SIGNIFICANT WEATHER AND/OR OBSTRUCTIONS TO VISIBILITY.


NDZ001>003-009>011-017-181600-
NORTHWEST NORTH DAKOTA

CITY           SKY/WX    TMP DP  RH WIND       PRES   REMARKS
WILLISTON      PTCLDY    14   9  80 W8        30.13R WCI   3
MINOT          CLEAR     15   7  70 W22G28    30.06R WCI  -3
MINOT AFB      CLEAR     13   6  73 NW18      30.06R WCI  -4
$$

NDZ018>021-031>035-040>046-181600-
SOUTHWEST NORTH DAKOTA

CITY           SKY/WX    TMP DP  RH WIND       PRES   REMARKS
BISMARCK       CLEAR     22  17  81 W9        30.10R WCI  12
DICKINSON      CLEAR     14  10  84 W8        30.08R WCI   3
GARRISON         N/A     13   9  84 NW13      30.08R WCI  -2
HETTINGER ARPT CLEAR     15  10  80 W10       30.12R WCI   2
$$

NDZ004>008-012>016-024-026-027-054-181600-
NORTHEAST NORTH DAKOTA

CITY           SKY/WX    TMP DP  RH WIND       PRES   REMARKS
GRAND FORKS    PTCLDY    17  11  77 NW13      30.00R WCI   4
GRND FRKS AFB  MOCLDY    16   9  73 NW13      30.00R WCI   3
DEVILS LAKE    CLEAR     13   9  84 NW22      29.99R WCI  -6
$$

NDZ022-023-025-028>030-036>039-047>053-181600-
SOUTHEAST NORTH DAKOTA

CITY           SKY/WX    TMP DP  RH WIND       PRES   REMARKS
FARGO          MOSUNNY   21  13  71 NW18      30.00R WCI   6
JAMESTOWN      CLEAR     18  11  74 NW20      30.01R WCI   2
$$





USA.gov is the U.S. government's official web portal to all federal, state and local government web resources and services.